| State | Oklahoma | Latest | Poor (55 cfs) | |
| River | Glover River | Rating | Observed | Estimated |
| Updated | 2026-05-10 6:00 (1 hour ago) | Flood - The river is flooding. Obstacles can be treacherous or deadly. The river should be avoided at this stage for casual trips and definitely for the inexperienced. Trips should be attempted only with protective gear and equipment.Flood | (none) | 2227 |
| Discharge | 55 cfs (median: 287 cfs) | High - The river is high and potentially dangerous, especially for the young and / or inexperienced. Normal stream obstacles are sometimes difficult to navigate. Extended distances can be attempted, but canoe travel may not be advisable.High | (none) | 749 |
| Height | 2.78 feet | Good - Conditions are ideal for a canoe or kayak. Boats typically will drag on fewer than one-quarter of riffles, if at all, and portages are unnecessary or rare. Normal float lengths can be attempted without a problem.Good | 100 | 271 |
| Trend | Falling (falling over 24 hours) | Low - River is low but can still be floated. Some riffles are okay but most come with significant dragging and might need a portage. Float lengths should be reduced to accommodate low flow, dragging, and portages.Low | (none) | 98 |
| USGS | USGS Site ( Duck Duck Go Maps) | Poor - River is too low to float comfortably. Most or all riffles will drag or must be portaged and some obstacles (such as slick shelf rock) cause undue problems. Avoid the river at this stage for casual paddling trips.Poor | (none) | 8 |
A total of 1 rows are displayed.
| Miles | 4.8 |
| Trips | 1 |
| People | 3 |
| Dates | 1 |
| Years | 1 |
| Months | 1 |
| Rows | 1 |
| Sources | 1 |
BLG - Bluegill
CCF - Channel Catfish
CP - Chain Pickerel
FWD - Freshwater Drum
GSF - Green Sunfish
KSB - Kentucky Spotted Bass
LMB - Largemouth Bass
LSF - Longear Sunfish
RB - Rock Bass / Goggle Eye
RSF - Redear Sunfish
RT - Rainbow Trout
SMB - Smallmouth Bass
WB - White Bass
WF - Whitefish
WL - WalleyeThe classic River Trips application is still available for use. It is updated with the new system using a data retrofit. It is no longer maintained. The original River Trips application is no longer updated (as of 1 Dec 2016) but can be checked for errors or for the condition of the data before it was converted to the new system.
| Observation | Height | Discharge | Maximum Discharge | Minimum Discharge | Mean Discharge | P05 | P10 | P20 | P25 | P50 (Median) | P75 | P80 | P90 | P95 |
|---|---|---|---|---|---|---|---|---|---|---|---|---|---|---|
| 2026-05-10 06:00 | 2.78 | 55 | 15100 (1993) | 25 (2010) | 1250 | 37 | 53 | 102 | 109 | 287 | 881 | 1480 | 2880 | 9540 |
| 2026-05-10 05:30 | 2.81 | 58 | 15100 (1993) | 25 (2010) | 1250 | 37 | 53 | 102 | 109 | 287 | 881 | 1480 | 2880 | 9540 |
| 2026-05-10 04:30 | 2.86 | 64 | 15100 (1993) | 25 (2010) | 1250 | 37 | 53 | 102 | 109 | 287 | 881 | 1480 | 2880 | 9540 |
| 2026-05-09 16:00 | 2.89 | 68 | 13800 (2015) | 22 (1987) | 976 | 31 | 51 | 115 | 128 | 349 | 696 | 917 | 2740 | 4860 |
| 2026-05-09 15:30 | 2.89 | 68 | 13800 (2015) | 22 (1987) | 976 | 31 | 51 | 115 | 128 | 349 | 696 | 917 | 2740 | 4860 |
| 2026-05-09 11:00 | 2.90 | 69 | 13800 (2015) | 22 (1987) | 976 | 31 | 51 | 115 | 128 | 349 | 696 | 917 | 2740 | 4860 |
| 2026-05-09 06:30 | 2.88 | 67 | 13800 (2015) | 22 (1987) | 976 | 31 | 51 | 115 | 128 | 349 | 696 | 917 | 2740 | 4860 |
| 2026-05-09 05:30 | 2.89 | 68 | 13800 (2015) | 22 (1987) | 976 | 31 | 51 | 115 | 128 | 349 | 696 | 917 | 2740 | 4860 |
| 2026-05-08 18:30 | 2.84 | 62 | 13100 (1995) | 18 (1987) | 934 | 33 | 51 | 126 | 141 | 350 | 732 | 1120 | 2120 | 3920 |
| 2026-05-08 17:30 | 2.91 | 71 | 13100 (1995) | 18 (1987) | 934 | 33 | 51 | 126 | 141 | 350 | 732 | 1120 | 2120 | 3920 |
| 2026-05-08 16:30 | 2.90 | 69 | 13100 (1995) | 18 (1987) | 934 | 33 | 51 | 126 | 141 | 350 | 732 | 1120 | 2120 | 3920 |
| 2026-05-08 15:30 | 2.92 | 72 | 13100 (1995) | 18 (1987) | 934 | 33 | 51 | 126 | 141 | 350 | 732 | 1120 | 2120 | 3920 |
| 2026-05-08 14:30 | 2.91 | 71 | 13100 (1995) | 18 (1987) | 934 | 33 | 51 | 126 | 141 | 350 | 732 | 1120 | 2120 | 3920 |
| 2026-05-08 13:30 | 2.91 | 71 | 13100 (1995) | 18 (1987) | 934 | 33 | 51 | 126 | 141 | 350 | 732 | 1120 | 2120 | 3920 |
| 2026-05-08 12:30 | 2.90 | 69 | 13100 (1995) | 18 (1987) | 934 | 33 | 51 | 126 | 141 | 350 | 732 | 1120 | 2120 | 3920 |
| 2026-05-08 11:30 | 2.92 | 72 | 13100 (1995) | 18 (1987) | 934 | 33 | 51 | 126 | 141 | 350 | 732 | 1120 | 2120 | 3920 |
| 2026-05-08 10:30 | 2.92 | 72 | 13100 (1995) | 18 (1987) | 934 | 33 | 51 | 126 | 141 | 350 | 732 | 1120 | 2120 | 3920 |
| 2026-05-08 08:30 | 2.88 | 67 | 13100 (1995) | 18 (1987) | 934 | 33 | 51 | 126 | 141 | 350 | 732 | 1120 | 2120 | 3920 |
| 2026-05-08 07:30 | 2.87 | 65 | 13100 (1995) | 18 (1987) | 934 | 33 | 51 | 126 | 141 | 350 | 732 | 1120 | 2120 | 3920 |
| 2026-05-08 06:30 | 2.85 | 63 | 13100 (1995) | 18 (1987) | 934 | 33 | 51 | 126 | 141 | 350 | 732 | 1120 | 2120 | 3920 |
| 2026-05-08 05:30 | 2.88 | 67 | 13100 (1995) | 18 (1987) | 934 | 33 | 51 | 126 | 141 | 350 | 732 | 1120 | 2120 | 3920 |
| 2026-05-08 04:30 | 2.89 | 68 | 13100 (1995) | 18 (1987) | 934 | 33 | 51 | 126 | 141 | 350 | 732 | 1120 | 2120 | 3920 |
| 2026-05-08 03:30 | 2.88 | 67 | 13100 (1995) | 18 (1987) | 934 | 33 | 51 | 126 | 141 | 350 | 732 | 1120 | 2120 | 3920 |
| 2026-05-08 02:30 | 2.89 | 68 | 13100 (1995) | 18 (1987) | 934 | 33 | 51 | 126 | 141 | 350 | 732 | 1120 | 2120 | 3920 |
| 2026-05-08 01:30 | 2.89 | 68 | 13100 (1995) | 18 (1987) | 934 | 33 | 51 | 126 | 141 | 350 | 732 | 1120 | 2120 | 3920 |
| 2026-05-08 00:30 | 2.88 | 67 | 13100 (1995) | 18 (1987) | 934 | 33 | 51 | 126 | 141 | 350 | 732 | 1120 | 2120 | 3920 |
| 2026-05-07 23:30 | 2.87 | 65 | 13100 (1995) | 18 (1987) | 934 | 33 | 51 | 126 | 141 | 350 | 732 | 1120 | 2120 | 3920 |
| 2026-05-07 22:30 | 2.87 | 65 | 8490 (1969) | 18 (1987) | 900 | 36 | 56 | 116 | 139 | 338 | 888 | 1040 | 2830 | 4660 |
| 2026-05-07 21:30 | 2.87 | 65 | 8490 (1969) | 18 (1987) | 900 | 36 | 56 | 116 | 139 | 338 | 888 | 1040 | 2830 | 4660 |
| 2026-05-07 20:30 | 2.86 | 64 | 8490 (1969) | 18 (1987) | 900 | 36 | 56 | 116 | 139 | 338 | 888 | 1040 | 2830 | 4660 |
| 2026-05-07 19:30 | 2.87 | 65 | 8490 (1969) | 18 (1987) | 900 | 36 | 56 | 116 | 139 | 338 | 888 | 1040 | 2830 | 4660 |
| 2026-05-07 18:30 | 2.87 | 65 | 8490 (1969) | 18 (1987) | 900 | 36 | 56 | 116 | 139 | 338 | 888 | 1040 | 2830 | 4660 |
| 2026-05-07 17:30 | 2.88 | 67 | 8490 (1969) | 18 (1987) | 900 | 36 | 56 | 116 | 139 | 338 | 888 | 1040 | 2830 | 4660 |
| 2026-05-07 16:30 | 2.87 | 65 | 8490 (1969) | 18 (1987) | 900 | 36 | 56 | 116 | 139 | 338 | 888 | 1040 | 2830 | 4660 |
| 2026-05-07 15:30 | 2.89 | 68 | 8490 (1969) | 18 (1987) | 900 | 36 | 56 | 116 | 139 | 338 | 888 | 1040 | 2830 | 4660 |
| 2026-05-07 14:30 | 2.88 | 67 | 8490 (1969) | 18 (1987) | 900 | 36 | 56 | 116 | 139 | 338 | 888 | 1040 | 2830 | 4660 |
| 2026-05-07 12:30 | 2.89 | 68 | 8490 (1969) | 18 (1987) | 900 | 36 | 56 | 116 | 139 | 338 | 888 | 1040 | 2830 | 4660 |
| 2026-05-07 11:30 | 2.87 | 65 | 8490 (1969) | 18 (1987) | 900 | 36 | 56 | 116 | 139 | 338 | 888 | 1040 | 2830 | 4660 |
| 2026-05-07 10:30 | 2.88 | 67 | 8490 (1969) | 18 (1987) | 900 | 36 | 56 | 116 | 139 | 338 | 888 | 1040 | 2830 | 4660 |
| 2026-05-07 08:30 | 2.89 | 68 | 8490 (1969) | 18 (1987) | 900 | 36 | 56 | 116 | 139 | 338 | 888 | 1040 | 2830 | 4660 |
| 2026-05-07 07:30 | 2.92 | 72 | 8490 (1969) | 18 (1987) | 900 | 36 | 56 | 116 | 139 | 338 | 888 | 1040 | 2830 | 4660 |
| 2026-05-07 06:30 | 2.90 | 69 | 8490 (1969) | 18 (1987) | 900 | 36 | 56 | 116 | 139 | 338 | 888 | 1040 | 2830 | 4660 |
| 2026-05-07 05:30 | 2.89 | 68 | 8490 (1969) | 18 (1987) | 900 | 36 | 56 | 116 | 139 | 338 | 888 | 1040 | 2830 | 4660 |
| 2026-05-07 04:30 | 2.89 | 68 | 8490 (1969) | 18 (1987) | 900 | 36 | 56 | 116 | 139 | 338 | 888 | 1040 | 2830 | 4660 |
| 2026-05-07 03:30 | 2.90 | 69 | 8490 (1969) | 18 (1987) | 900 | 36 | 56 | 116 | 139 | 338 | 888 | 1040 | 2830 | 4660 |
| 2026-05-07 02:30 | 2.91 | 71 | 8490 (1969) | 18 (1987) | 900 | 36 | 56 | 116 | 139 | 338 | 888 | 1040 | 2830 | 4660 |
| 2026-05-07 01:30 | 2.91 | 71 | 8490 (1969) | 18 (1987) | 900 | 36 | 56 | 116 | 139 | 338 | 888 | 1040 | 2830 | 4660 |
| 2026-05-07 00:30 | 2.92 | 72 | 8490 (1969) | 18 (1987) | 900 | 36 | 56 | 116 | 139 | 338 | 888 | 1040 | 2830 | 4660 |
| 2026-05-06 23:30 | 2.93 | 73 | 8490 (1969) | 18 (1987) | 900 | 36 | 56 | 116 | 139 | 338 | 888 | 1040 | 2830 | 4660 |
| 2026-05-06 22:30 | 2.94 | 75 | 10100 (1967) | 17 (1987) | 826 | 43 | 61 | 130 | 139 | 381 | 835 | 979 | 2000 | 2250 |
| 2026-05-06 21:30 | 2.93 | 73 | 10100 (1967) | 17 (1987) | 826 | 43 | 61 | 130 | 139 | 381 | 835 | 979 | 2000 | 2250 |
| 2026-05-06 16:30 | 2.94 | 75 | 10100 (1967) | 17 (1987) | 826 | 43 | 61 | 130 | 139 | 381 | 835 | 979 | 2000 | 2250 |
| 2026-05-06 13:30 | 2.94 | 75 | 10100 (1967) | 17 (1987) | 826 | 43 | 61 | 130 | 139 | 381 | 835 | 979 | 2000 | 2250 |
| 2026-05-06 12:30 | 2.90 | 69 | 10100 (1967) | 17 (1987) | 826 | 43 | 61 | 130 | 139 | 381 | 835 | 979 | 2000 | 2250 |
| 2026-05-06 11:30 | 2.90 | 69 | 10100 (1967) | 17 (1987) | 826 | 43 | 61 | 130 | 139 | 381 | 835 | 979 | 2000 | 2250 |
| 2026-05-06 10:30 | 2.94 | 75 | 10100 (1967) | 17 (1987) | 826 | 43 | 61 | 130 | 139 | 381 | 835 | 979 | 2000 | 2250 |
| 2026-05-06 09:30 | 2.97 | 79 | 10100 (1967) | 17 (1987) | 826 | 43 | 61 | 130 | 139 | 381 | 835 | 979 | 2000 | 2250 |
| 2026-05-06 08:30 | 2.96 | 77 | 10100 (1967) | 17 (1987) | 826 | 43 | 61 | 130 | 139 | 381 | 835 | 979 | 2000 | 2250 |
| 2026-05-06 07:30 | 2.96 | 77 | 10100 (1967) | 17 (1987) | 826 | 43 | 61 | 130 | 139 | 381 | 835 | 979 | 2000 | 2250 |
| 2026-05-06 06:30 | 2.95 | 76 | 10100 (1967) | 17 (1987) | 826 | 43 | 61 | 130 | 139 | 381 | 835 | 979 | 2000 | 2250 |
| 2026-05-06 05:30 | 2.96 | 77 | 10100 (1967) | 17 (1987) | 826 | 43 | 61 | 130 | 139 | 381 | 835 | 979 | 2000 | 2250 |
| 2026-05-06 04:30 | 2.97 | 79 | 10100 (1967) | 17 (1987) | 826 | 43 | 61 | 130 | 139 | 381 | 835 | 979 | 2000 | 2250 |
| 2026-05-06 03:30 | 2.95 | 76 | 10100 (1967) | 17 (1987) | 826 | 43 | 61 | 130 | 139 | 381 | 835 | 979 | 2000 | 2250 |
| 2026-05-06 02:30 | 2.95 | 76 | 10100 (1967) | 17 (1987) | 826 | 43 | 61 | 130 | 139 | 381 | 835 | 979 | 2000 | 2250 |
| 2026-05-06 01:30 | 2.96 | 77 | 10100 (1967) | 17 (1987) | 826 | 43 | 61 | 130 | 139 | 381 | 835 | 979 | 2000 | 2250 |
| 2026-05-06 00:30 | 2.98 | 80 | 10100 (1967) | 17 (1987) | 826 | 43 | 61 | 130 | 139 | 381 | 835 | 979 | 2000 | 2250 |
| 2026-05-05 23:30 | 2.96 | 77 | 10100 (1967) | 17 (1987) | 826 | 43 | 61 | 130 | 139 | 381 | 835 | 979 | 2000 | 2250 |
| 2026-05-05 22:30 | 2.96 | 77 | 4590 (1991) | 18 (1987) | 735 | 47 | 61 | 91 | 147 | 351 | 1070 | 1180 | 1980 | 3350 |
| 2026-05-05 21:30 | 2.97 | 79 | 4590 (1991) | 18 (1987) | 735 | 47 | 61 | 91 | 147 | 351 | 1070 | 1180 | 1980 | 3350 |
| 2026-05-05 20:30 | 3.00 | 83 | 4590 (1991) | 18 (1987) | 735 | 47 | 61 | 91 | 147 | 351 | 1070 | 1180 | 1980 | 3350 |
| 2026-05-05 19:30 | 2.99 | 82 | 4590 (1991) | 18 (1987) | 735 | 47 | 61 | 91 | 147 | 351 | 1070 | 1180 | 1980 | 3350 |
| 2026-05-05 18:30 | 2.99 | 82 | 4590 (1991) | 18 (1987) | 735 | 47 | 61 | 91 | 147 | 351 | 1070 | 1180 | 1980 | 3350 |
| 2026-05-05 17:30 | 3.00 | 83 | 4590 (1991) | 18 (1987) | 735 | 47 | 61 | 91 | 147 | 351 | 1070 | 1180 | 1980 | 3350 |
| 2026-05-05 16:30 | 3.00 | 83 | 4590 (1991) | 18 (1987) | 735 | 47 | 61 | 91 | 147 | 351 | 1070 | 1180 | 1980 | 3350 |
| 2026-05-05 15:30 | 3.01 | 84 | 4590 (1991) | 18 (1987) | 735 | 47 | 61 | 91 | 147 | 351 | 1070 | 1180 | 1980 | 3350 |
| 2026-05-05 14:30 | 3.01 | 84 | 4590 (1991) | 18 (1987) | 735 | 47 | 61 | 91 | 147 | 351 | 1070 | 1180 | 1980 | 3350 |
| 2026-05-05 13:30 | 3.00 | 83 | 4590 (1991) | 18 (1987) | 735 | 47 | 61 | 91 | 147 | 351 | 1070 | 1180 | 1980 | 3350 |
| 2026-05-05 12:30 | 3.04 | 88 | 4590 (1991) | 18 (1987) | 735 | 47 | 61 | 91 | 147 | 351 | 1070 | 1180 | 1980 | 3350 |
| 2026-05-05 11:30 | 3.03 | 87 | 4590 (1991) | 18 (1987) | 735 | 47 | 61 | 91 | 147 | 351 | 1070 | 1180 | 1980 | 3350 |
| 2026-05-05 10:30 | 3.06 | 91 | 4590 (1991) | 18 (1987) | 735 | 47 | 61 | 91 | 147 | 351 | 1070 | 1180 | 1980 | 3350 |
| 2026-05-05 09:30 | 2.98 | 80 | 4590 (1991) | 18 (1987) | 735 | 47 | 61 | 91 | 147 | 351 | 1070 | 1180 | 1980 | 3350 |
| 2026-05-05 08:30 | 3.03 | 87 | 4590 (1991) | 18 (1987) | 735 | 47 | 61 | 91 | 147 | 351 | 1070 | 1180 | 1980 | 3350 |
| 2026-05-05 07:30 | 3.03 | 87 | 4590 (1991) | 18 (1987) | 735 | 47 | 61 | 91 | 147 | 351 | 1070 | 1180 | 1980 | 3350 |
| 2026-05-05 06:30 | 3.02 | 86 | 4590 (1991) | 18 (1987) | 735 | 47 | 61 | 91 | 147 | 351 | 1070 | 1180 | 1980 | 3350 |
| 2026-05-05 05:30 | 3.03 | 87 | 4590 (1991) | 18 (1987) | 735 | 47 | 61 | 91 | 147 | 351 | 1070 | 1180 | 1980 | 3350 |
| 2026-05-05 04:30 | 3.06 | 91 | 4590 (1991) | 18 (1987) | 735 | 47 | 61 | 91 | 147 | 351 | 1070 | 1180 | 1980 | 3350 |
| 2026-05-05 03:30 | 3.07 | 92 | 4590 (1991) | 18 (1987) | 735 | 47 | 61 | 91 | 147 | 351 | 1070 | 1180 | 1980 | 3350 |
| 2026-05-05 02:30 | 3.08 | 93 | 4590 (1991) | 18 (1987) | 735 | 47 | 61 | 91 | 147 | 351 | 1070 | 1180 | 1980 | 3350 |
| 2026-05-05 01:30 | 3.08 | 93 | 4590 (1991) | 18 (1987) | 735 | 47 | 61 | 91 | 147 | 351 | 1070 | 1180 | 1980 | 3350 |
| 2026-05-05 00:30 | 3.09 | 95 | 4590 (1991) | 18 (1987) | 735 | 47 | 61 | 91 | 147 | 351 | 1070 | 1180 | 1980 | 3350 |
| 2026-05-04 23:30 | 3.07 | 92 | 4590 (1991) | 18 (1987) | 735 | 47 | 61 | 91 | 147 | 351 | 1070 | 1180 | 1980 | 3350 |
| 2026-05-04 22:30 | 3.08 | 93 | 7840 (1990) | 19 (1987) | 898 | 46 | 66 | 109 | 167 | 352 | 1160 | 1430 | 2210 | 3090 |
| 2026-05-04 21:30 | 3.10 | 96 | 7840 (1990) | 19 (1987) | 898 | 46 | 66 | 109 | 167 | 352 | 1160 | 1430 | 2210 | 3090 |
| 2026-05-04 20:30 | 3.10 | 96 | 7840 (1990) | 19 (1987) | 898 | 46 | 66 | 109 | 167 | 352 | 1160 | 1430 | 2210 | 3090 |
| 2026-05-04 19:30 | 3.15 | 103 | 7840 (1990) | 19 (1987) | 898 | 46 | 66 | 109 | 167 | 352 | 1160 | 1430 | 2210 | 3090 |
| 2026-05-04 18:30 | 3.13 | 100 | 7840 (1990) | 19 (1987) | 898 | 46 | 66 | 109 | 167 | 352 | 1160 | 1430 | 2210 | 3090 |
| 2026-05-04 17:30 | 3.14 | 101 | 7840 (1990) | 19 (1987) | 898 | 46 | 66 | 109 | 167 | 352 | 1160 | 1430 | 2210 | 3090 |
| 2026-05-04 16:30 | 3.16 | 104 | 7840 (1990) | 19 (1987) | 898 | 46 | 66 | 109 | 167 | 352 | 1160 | 1430 | 2210 | 3090 |
| 2026-05-04 15:30 | 3.16 | 104 | 7840 (1990) | 19 (1987) | 898 | 46 | 66 | 109 | 167 | 352 | 1160 | 1430 | 2210 | 3090 |
| 2026-05-04 14:30 | 3.17 | 106 | 7840 (1990) | 19 (1987) | 898 | 46 | 66 | 109 | 167 | 352 | 1160 | 1430 | 2210 | 3090 |
| 2026-05-04 13:30 | 3.19 | 108 | 7840 (1990) | 19 (1987) | 898 | 46 | 66 | 109 | 167 | 352 | 1160 | 1430 | 2210 | 3090 |
| 2026-05-04 12:30 | 3.19 | 108 | 7840 (1990) | 19 (1987) | 898 | 46 | 66 | 109 | 167 | 352 | 1160 | 1430 | 2210 | 3090 |
| 2026-05-04 11:30 | 3.17 | 106 | 7840 (1990) | 19 (1987) | 898 | 46 | 66 | 109 | 167 | 352 | 1160 | 1430 | 2210 | 3090 |
| 2026-05-04 10:30 | 3.24 | 116 | 7840 (1990) | 19 (1987) | 898 | 46 | 66 | 109 | 167 | 352 | 1160 | 1430 | 2210 | 3090 |
| 2026-05-04 09:30 | 3.22 | 113 | 7840 (1990) | 19 (1987) | 898 | 46 | 66 | 109 | 167 | 352 | 1160 | 1430 | 2210 | 3090 |
| 2026-05-04 08:30 | 3.23 | 114 | 7840 (1990) | 19 (1987) | 898 | 46 | 66 | 109 | 167 | 352 | 1160 | 1430 | 2210 | 3090 |
| 2026-05-04 07:30 | 3.22 | 113 | 7840 (1990) | 19 (1987) | 898 | 46 | 66 | 109 | 167 | 352 | 1160 | 1430 | 2210 | 3090 |
| 2026-05-04 06:30 | 3.24 | 116 | 7840 (1990) | 19 (1987) | 898 | 46 | 66 | 109 | 167 | 352 | 1160 | 1430 | 2210 | 3090 |
| 2026-05-04 05:30 | 3.22 | 113 | 7840 (1990) | 19 (1987) | 898 | 46 | 66 | 109 | 167 | 352 | 1160 | 1430 | 2210 | 3090 |
| 2026-05-04 04:30 | 3.26 | 119 | 7840 (1990) | 19 (1987) | 898 | 46 | 66 | 109 | 167 | 352 | 1160 | 1430 | 2210 | 3090 |
| 2026-05-04 03:30 | 3.24 | 116 | 7840 (1990) | 19 (1987) | 898 | 46 | 66 | 109 | 167 | 352 | 1160 | 1430 | 2210 | 3090 |
| 2026-05-04 02:30 | 3.25 | 117 | 7840 (1990) | 19 (1987) | 898 | 46 | 66 | 109 | 167 | 352 | 1160 | 1430 | 2210 | 3090 |
| 2026-05-04 01:30 | 3.27 | 120 | 7840 (1990) | 19 (1987) | 898 | 46 | 66 | 109 | 167 | 352 | 1160 | 1430 | 2210 | 3090 |
| 2026-05-04 00:30 | 3.29 | 123 | 7840 (1990) | 19 (1987) | 898 | 46 | 66 | 109 | 167 | 352 | 1160 | 1430 | 2210 | 3090 |
| 2026-05-03 23:30 | 3.29 | 123 | 7840 (1990) | 19 (1987) | 898 | 46 | 66 | 109 | 167 | 352 | 1160 | 1430 | 2210 | 3090 |
| 2026-05-03 22:30 | 3.31 | 126 | 36000 (1990) | 20 (1987) | 1920 | 50 | 75 | 123 | 175 | 374 | 1220 | 1690 | 6110 | 8440 |
| 2026-05-03 21:30 | 3.33 | 129 | 36000 (1990) | 20 (1987) | 1920 | 50 | 75 | 123 | 175 | 374 | 1220 | 1690 | 6110 | 8440 |
| 2026-05-03 20:30 | 3.28 | 122 | 36000 (1990) | 20 (1987) | 1920 | 50 | 75 | 123 | 175 | 374 | 1220 | 1690 | 6110 | 8440 |
| 2026-05-03 19:30 | 3.34 | 131 | 36000 (1990) | 20 (1987) | 1920 | 50 | 75 | 123 | 175 | 374 | 1220 | 1690 | 6110 | 8440 |
| 2026-05-03 18:30 | 3.34 | 131 | 36000 (1990) | 20 (1987) | 1920 | 50 | 75 | 123 | 175 | 374 | 1220 | 1690 | 6110 | 8440 |
| 2026-05-03 16:30 | 3.36 | 134 | 36000 (1990) | 20 (1987) | 1920 | 50 | 75 | 123 | 175 | 374 | 1220 | 1690 | 6110 | 8440 |
| 2026-05-03 15:30 | 3.41 | 142 | 36000 (1990) | 20 (1987) | 1920 | 50 | 75 | 123 | 175 | 374 | 1220 | 1690 | 6110 | 8440 |
| 2026-05-03 14:30 | 3.40 | 141 | 36000 (1990) | 20 (1987) | 1920 | 50 | 75 | 123 | 175 | 374 | 1220 | 1690 | 6110 | 8440 |
| 2026-05-03 13:30 | 3.38 | 137 | 36000 (1990) | 20 (1987) | 1920 | 50 | 75 | 123 | 175 | 374 | 1220 | 1690 | 6110 | 8440 |
| 2026-05-03 12:30 | 3.41 | 142 | 36000 (1990) | 20 (1987) | 1920 | 50 | 75 | 123 | 175 | 374 | 1220 | 1690 | 6110 | 8440 |
| 2026-05-03 11:30 | 3.43 | 146 | 36000 (1990) | 20 (1987) | 1920 | 50 | 75 | 123 | 175 | 374 | 1220 | 1690 | 6110 | 8440 |
| 2026-05-03 10:30 | 3.44 | 147 | 36000 (1990) | 20 (1987) | 1920 | 50 | 75 | 123 | 175 | 374 | 1220 | 1690 | 6110 | 8440 |
| 2026-05-03 09:30 | 3.46 | 151 | 36000 (1990) | 20 (1987) | 1920 | 50 | 75 | 123 | 175 | 374 | 1220 | 1690 | 6110 | 8440 |
| 2026-05-03 08:30 | 3.46 | 151 | 36000 (1990) | 20 (1987) | 1920 | 50 | 75 | 123 | 175 | 374 | 1220 | 1690 | 6110 | 8440 |
| 2026-05-03 07:30 | 3.46 | 151 | 36000 (1990) | 20 (1987) | 1920 | 50 | 75 | 123 | 175 | 374 | 1220 | 1690 | 6110 | 8440 |
| 2026-05-03 06:30 | 3.49 | 156 | 36000 (1990) | 20 (1987) | 1920 | 50 | 75 | 123 | 175 | 374 | 1220 | 1690 | 6110 | 8440 |
| 2026-05-03 05:30 | 3.51 | 159 | 36000 (1990) | 20 (1987) | 1920 | 50 | 75 | 123 | 175 | 374 | 1220 | 1690 | 6110 | 8440 |
| 2026-05-03 04:30 | 3.46 | 151 | 36000 (1990) | 20 (1987) | 1920 | 50 | 75 | 123 | 175 | 374 | 1220 | 1690 | 6110 | 8440 |
A total of 133 rows are displayed for years 1962 through 2025.